Terug naar catalogus

STARLINK-30080

ActiefCommunicatieVLEO
NORAD 56705·PAYLOAD·🇺🇸 United States

Gelanceerd May 19, 2023 vanaf Cape Canaveral Space Force Station

Loading…

Volgende Passages (komende 24 uur)

TLE

VersSource: CelesTrak SupGP

Epoch: Sep 15, 2026, 03:04 UTC

1 56705C 23067T   26258.12826389 -.00010594  00000+0 -38374-3 0  2589
2 56705  43.0000 273.2106 0001384 268.1133 113.8360 15.27582749    16

Volg STARLINK-30080 in realtime met AllMySat

Download on the App Store